TimeAKDT,TemperatureF,Dew PointF,Humidity,Sea Level PressureIn,VisibilityMPH,Wind Direction,Wind SpeedMPH,Gust SpeedMPH,PrecipitationIn,Events,Conditions,WindDirDegrees,DateUTC
12:53 AM,54.0,32.0,43,30.14,10.0,NNE,16.1,24.2,N/A,,Overcast,30,2012-10-10 08:53:00
1:53 AM,53.1,30.9,43,30.15,10.0,NNE,11.5,24.2,N/A,,Overcast,20,2012-10-10 09:53:00
2:53 AM,52.0,30.9,45,30.15,10.0,NNE,13.8,23.0,N/A,,Overcast,20,2012-10-10 10:53:00
3:53 AM,51.1,30.9,46,30.15,10.0,NNE,18.4,24.2,N/A,,Overcast,20,2012-10-10 11:53:00
4:53 AM,50.0,30.9,48,30.15,10.0,NNE,16.1,24.2,N/A,,Partly Cloudy,30,2012-10-10 12:53:00
5:53 AM,50.0,30.0,46,30.15,10.0,NNE,15.0,23.0,N/A,,Scattered Clouds,20,2012-10-10 13:53:00
6:53 AM,48.9,30.9,50,30.16,10.0,NNE,15.0,26.5,N/A,,Mostly Cloudy,30,2012-10-10 14:53:00
7:53 AM,48.9,30.9,50,30.16,10.0,NNE,11.5,20.7,N/A,,Mostly Cloudy,20,2012-10-10 15:53:00
8:53 AM,48.9,32.0,52,30.15,10.0,NNE,11.5,-,N/A,,Mostly Cloudy,30,2012-10-10 16:53:00
9:53 AM,48.9,32.0,52,30.14,10.0,NNE,9.2,-,N/A,,Mostly Cloudy,30,2012-10-10 17:53:00
10:53 AM,51.1,32.0,48,30.13,10.0,NNE,12.7,-,N/A,,Overcast,30,2012-10-10 18:53:00
11:53 AM,51.1,30.9,46,30.10,10.0,NNE,11.5,-,N/A,,Overcast,20,2012-10-10 19:53:00
12:53 PM,52.0,30.9,45,30.08,10.0,Variable,5.8,-,N/A,,Overcast,0,2012-10-10 20:53:00
1:53 PM,51.1,32.0,48,30.07,10.0,North,6.9,-,N/A,,Overcast,10,2012-10-10 21:53:00
2:53 PM,50.0,32.0,50,30.06,10.0,Variable,3.5,-,N/A,,Overcast,0,2012-10-10 22:53:00
3:53 PM,50.0,32.0,50,30.04,10.0,Variable,4.6,-,N/A,,Overcast,0,2012-10-10 23:53:00
4:53 PM,48.9,32.0,52,30.02,10.0,North,3.5,-,N/A,,Overcast,10,2012-10-11 00:53:00
5:53 PM,48.9,32.0,52,30.00,10.0,Calm,Calm,-,N/A,,Overcast,0,2012-10-11 01:53:00
6:53 PM,48.0,33.1,56,29.99,10.0,NE,5.8,-,N/A,,Overcast,40,2012-10-11 02:53:00
7:53 PM,48.0,33.1,56,29.99,10.0,Calm,Calm,-,N/A,,Overcast,0,2012-10-11 03:53:00
8:53 PM,46.9,33.1,59,29.98,10.0,Variable,6.9,-,N/A,,Overcast,0,2012-10-11 04:53:00
9:53 PM,48.0,33.1,56,29.99,10.0,Variable,4.6,-,N/A,,Overcast,0,2012-10-11 05:53:00
10:53 PM,46.9,33.1,59,29.99,10.0,NE,9.2,16.1,N/A,,Overcast,40,2012-10-11 06:53:00
11:53 PM,46.9,30.9,54,29.99,10.0,NNE,10.4,23.0,0.00,,Overcast,20,2012-10-11 07:53:00